User: anonymous   Login
Location: L'Union
(43.6635°N, 1.4699°E)
Time: 19:23:49
(UTC+02:00)
Language:

YUBILEINY - Orbit

View from above orbital plane
View from above orbital plane
View from above satellite
View from above satellite

Ground track
Ground track

The orbit data is extracted from the following two-line orbital elements,

1 32953U 08025A   21294.50583429  .00000021  00000-0  80971-4 0  9993
2 32953  82.5056 332.5441 0020551  64.6789 295.6420 12.43105068608647
Epoch (UTC): 21 October 2021 12:08:24
Eccentricity: 0.0020551
inclination: 82.5056°
perigee height: 1477 km
apogee height: 1509 km
right ascension of ascending node: 332.5441°
argument of perigee: 64.6789°
revolutions per day: 12.43105068
mean anomaly at epoch: 295.6420°
orbit number at epoch: 60864

The dashed part of the orbit path shows where the satellite is in the earth's shadow,  

DLR